Location: Squirrel Cove
(50.1074°N, 124.9139°W)
Time: 01:55:22
(UTC-08:00)

BlueWalker 3 - Pass Details

Date: 06 December 2022
Orbit: 499 x 517 km, 53.2° (Epoch: 29 January)

Event Time Altitude Azimuth Distance (km) Brightness Sun altitude
Rises 19:29:22 0° 292° (WNW) 2,627 6.6 -29.6°
Reaches altitude 10° 19:31:41 10° 284° (WNW) 1,734 5.5 -29.9°
Enters shadow 19:33:35 24° 266° (W) 1,079 4.2 -30.2°
